St Louis Regional Airport
KALN : now visible

Airfield :











YOU CAN JOIN US ON...

 
LOGIN :

Register | Disclaimer

   EN    FR    IT 

 









Legend :    VFR   Marginal VFR   IFR   Intensive IFR   Very Intensive IFR
Visi :
Ceiling :
>= 8 km
>= 3000ft
5 to 8 km
1000 to 3000 ft
1500m to 5 km
500 to 1000 ft
800 to 1500m
200 to 500 ft
< 800m
< 200 ft
Symbols :   Thunderstorms  Fog  Heavy snow  Heavy precipitations  Wind > 20 kt






- Airport Elevation : 544 ft


KALN - St Louis Regional

CURRENT METAR :
  • 250455Z AUTO 17008KT 10SM CLR 28/21 A2989 RMK AO2 T02770205

EXPIRED METARs :
  • 250435Z AUTO 17008KT 10SM CLR 28/21 A2989 RMK AO2 T02770206
  • 250415Z AUTO 17008KT 10SM CLR 28/21 A2989 RMK AO2 T02790205
  • 250355Z AUTO 16007KT 10SM CLR 28/21 A2988 RMK AO2 T02800205
  • 250335Z AUTO 15007KT 10SM CLR 28/21 A2989 RMK AO2 T02820205 TSNO
  • 250315Z AUTO 14007KT 10SM CLR 28/21 A2989 RMK AO2 T02830205
  • 250250Z 15007KT 10SM CLR 28/20 A2988
  • 250150Z 17009KT 10SM CLR 30/20 A2987
  • 250050Z 15007KT 10SM CLR 31/20 A2987

TAF N/A
KZKC FIR / North America



MET'MAP, your aeronautical weather chart ! - Copyright ORBIFLY December 2007 - Disclaimer

ORBIFLY MET'MAP TEAM :

Programming & Development : Alexandra Zaïnal
Original concept : Baudouin d'Aumeries
Technical & hardware support : Manuel Goepfert
Assistance : Marc-Olivier Méhu




SOURCES & CREDITS :

   NOAA       Earth
Advisory